San Jose, Costa Rica

5:35 AM CST on February 27, 2017 (GMT -0600)
Juan Santamaria International Airport

Weather History for MROC - March, 2013

Change the Weather History Date:

Friday, March 8, 2013

  Actual Average Record
Temperature  
Mean Temperature 78 °F -  
Max Temperature 86 °F 83 °F 90 °F (2016)
Min Temperature 69 °F 64 °F 62 °F (2001)
Cooling Degree Days 13    
Growing Degree Days 28 (Base 50)    
Moisture  
Dew Point 61 °F    
Average Humidity 58    
Maximum Humidity 73    
Minimum Humidity 31    
Precipitation  
Precipitation 0.00 in 0.04 in - ()
Sea Level Pressure  
Sea Level Pressure 29.94 in    
Wind  
Wind Speed 17 mph ()    
Max Wind Speed 36 mph    
Max Gust Speed 36 mph    
Visibility 7.5 miles    
Events      
Averages and records for this station are not official NWS values.
T = Trace of Precipitation, MM = Missing Value Source: Averaged Metar Reports

Daily Weather History Graph

Daily Weather History Graph

Search for Another Location

Airport or City:

Trip Planner

Search our weather history database for the weather conditions in past years. The results will help you decide how hot, cold, wet, or windy it might be!

Date:

Astronomy

Mar. 08, 2013 Rise Set
Actual Time 5:47 AM CST 5:47 PM CST
Civil Twilight 5:26 AM CST 6:08 PM CST
Nautical Twilight 5:02 AM CST 6:33 PM CST
Astronomical Twilight 4:37 AM CST 6:57 PM CST
Moon 3:01 AM CST (3/8) 3:06 PM CST (3/8)
Length of Visible Light 12h 42m
Length of Day
12h 00m
Waning Crescent, 11% of the Moon is Illuminated
Mar 8
Waning Crescent
Mar 11
New
Mar 19
First Quarter
Mar 27
Full
Apr 2
Last Quarter

Hourly Weather History & Observations

Time (CST) Temp. Heat Index Dew Point Humidity Pressure Visibility Wind Dir Wind Speed Gust Speed Precip Events Conditions
12:00 AM 71 °F - 62 °F 64% 29.81 in 12 mi ESE 33.4 mph - -   Scattered Clouds
12:00 AM 71.6 °F - 60.8 °F 69% 29.99 in 6.2 mi ESE 19.6 mph 33.4 mph N/A   Partly Cloudy
1:00 AM 71.6 °F - 60.8 °F 69% 29.96 in 6.2 mi East 16.1 mph 28.8 mph N/A   Partly Cloudy
2:00 AM 71.6 °F - 62.6 °F 73% 29.95 in 6.2 mi East 16.1 mph 29.9 mph N/A   Partly Cloudy
3:00 AM 71 °F - 61 °F 64% 29.78 in 12 mi East 35.7 mph - -   Scattered Clouds
3:00 AM 71.6 °F - 60.8 °F 69% 29.94 in 6.2 mi East 17.3 mph 35.7 mph N/A   Partly Cloudy
4:00 AM 71.6 °F - 60.8 °F 69% 29.94 in 6.2 mi East 15.0 mph 33.4 mph N/A   Partly Cloudy
5:00 AM 71.6 °F - 60.8 °F 69% 29.96 in 6.2 mi East 12.7 mph 24.2 mph N/A   Partly Cloudy
6:00 AM 71 °F - 61 °F 63% 29.83 in 12 mi East 27.6 mph - -   Scattered Clouds
6:00 AM 71.6 °F - 60.8 °F 69% 29.98 in 6.2 mi East 13.8 mph 27.6 mph N/A   Scattered Clouds
7:00 AM 73.4 °F - 60.8 °F 65% 30.00 in 6.2 mi East 15.0 mph 27.6 mph N/A   Partly Cloudy
8:00 AM 77.0 °F - 60.8 °F 57% 30.02 in 6.2 mi East 15.0 mph 26.5 mph N/A   Partly Cloudy
9:00 AM 81 °F - 60 °F 38% 29.85 in 12 mi East 16.1 mph - -   Scattered Clouds
9:00 AM 80.6 °F 81.1 °F 59.0 °F 48% 30.02 in 6.2 mi East 16.1 mph 27.6 mph N/A   Partly Cloudy
10:00 AM 82.4 °F 82.5 °F 59.0 °F 45% 30.02 in 6.2 mi East 17.3 mph 28.8 mph N/A   Partly Cloudy
11:00 AM 82.4 °F 82.5 °F 59.0 °F 45% 30.01 in 6.2 mi East 15.0 mph 26.5 mph N/A   Partly Cloudy
12:00 PM 85 °F - 59 °F 31% 29.81 in 12 mi ENE 15.0 mph - -   Scattered Clouds
12:00 PM 84.2 °F 83.8 °F 59.0 °F 42% 30.00 in 6.2 mi ENE 15.0 mph 26.5 mph N/A   Partly Cloudy
1:00 PM 82.4 °F 82.9 °F 60.8 °F 48% 29.97 in 6.2 mi ESE 16.1 mph 28.8 mph N/A   Partly Cloudy
2:00 PM 84.2 °F 83.8 °F 59.0 °F 42% 29.94 in 6.2 mi East 17.3 mph 29.9 mph N/A   Partly Cloudy
3:00 PM 81 °F - 61 °F 40% 29.78 in 12 mi East 15.0 mph - -   Partly Cloudy
3:00 PM 80.6 °F 81.5 °F 60.8 °F 51% 29.92 in 6.2 mi East 15.0 mph - N/A   Scattered Clouds
4:00 PM 80.6 °F 81.5 °F 60.8 °F 51% 29.92 in 6.2 mi East 13.8 mph 25.3 mph N/A   Scattered Clouds
5:00 PM 77.0 °F - 62.6 °F 61% 29.94 in 6.2 mi East 12.7 mph 24.2 mph N/A   Scattered Clouds
6:00 PM 74 °F - 62 °F 57% 29.83 in 12 mi East 12.7 mph - -   Scattered Clouds
6:00 PM 73.4 °F - 62.6 °F 69% 29.96 in 6.2 mi East 12.7 mph 24.2 mph N/A   Scattered Clouds
7:00 PM 73.4 °F - 60.8 °F 65% 29.98 in 6.2 mi East 9.2 mph - N/A   Scattered Clouds
8:00 PM 71.6 °F - 60.8 °F 69% 29.99 in 6.2 mi East 11.5 mph 23.0 mph N/A   Partly Cloudy
9:00 PM 71.6 °F - 60.8 °F 69% 30.00 in 6.2 mi East 13.8 mph 25.3 mph N/A   Partly Cloudy
10:00 PM 71.6 °F - 60.8 °F 69% 30.01 in 6.2 mi East 15.0 mph - N/A   Partly Cloudy
11:00 PM 69.8 °F - 60.8 °F 73% 30.00 in 6.2 mi East 13.8 mph 26.5 mph N/A   Partly Cloudy